Location: Beccas
(43.4309°N, 0.1528°E)
Time: 14:31:50
(UTC+00:00)

Transit 2A Rocket - Pass Details

Date: 31 May 2022
Orbit: 593 x 908 km, 66.7° (Epoch: 30 June)

Event Time Altitude Azimuth Distance (km) Brightness Sun altitude
Rises 22:01:14 0° 313° (NW) 2,877 9.3 -19.3°
Reaches altitude 10° 22:04:07 10° 294° (WNW) 1,944 7.8 -19.6°
Maximum altitude 22:06:59 17° 252° (WSW) 1,500 6.6 -19.8°
Enters shadow 22:08:38 14° 225° (SW) 1,651 6.6 -20.0°
